カタログに戻る

STARLINK-1856

運用中通信VLEO
NORAD 47143·PAYLOAD·🇺🇸 United States

打ち上げ Nov 25, 2020 から Cape Canaveral Space Force Station

Loading…

次のパス (今後24時間)

TLE

最新Source: CelesTrak SupGP

元期: Sep 15, 2026, 01:48 UTC

1 47143C 20088X   26258.07548611  .00347470  00000+0  81074-3 0  2587
2 47143  53.0362  56.7853 0005553 299.2397 122.4622 15.96085832    10

AllMySatでSTARLINK-1856をリアルタイム追跡

Download on the App Store